Oconto, WI

5:41 AM CDT on September 20, 2019 (GMT -0500)
Oconto Municipal

Weather History for KOCQ - June, 2019

Change the Weather History Date:

Thursday, June 13, 2019

  Actual Average Record
Temperature  
Mean Temperature 58 °F -  
Max Temperature 70 °F 73 °F 81 °F (2018)
Min Temperature 47 °F 51 °F 47 °F (2019)
Degree Days  
Heating Degree Days 7    
Growing Degree Days 8 (Base 50)    
Moisture  
Dew Point 42 °F    
Average Humidity 60    
Maximum Humidity 93    
Minimum Humidity 34    
Precipitation  
Precipitation 0.00 in - - ()
Sea Level Pressure  
Sea Level Pressure 29.88 in    
Wind  
Wind Speed 8 mph (NNW)    
Max Wind Speed 18 mph    
Max Gust Speed 26 mph    
Visibility 10 miles    
Events      
Averages and records for this station are not official NWS values.
T = Trace of Precipitation, MM = Missing Value Source: NWS Daily Summary

Daily Weather History Graph

Daily Weather History Graph

Search for Another Location

Airport or City:

Astronomy

Jun. 13, 2019 Rise Set
Actual Time 5:04 AM CDT 8:38 PM CDT
Civil Twilight 4:27 AM CDT 9:15 PM CDT
Nautical Twilight 3:38 AM CDT 10:05 PM CDT
Astronomical Twilight 2:34 AM CDT 11:09 PM CDT
Moon 4:42 PM CDT (6/13) 3:02 AM CDT (6/13)
Length of Visible Light 16h 48m
Length of Day
15h 33m
Waxing Gibbous, 85% of the Moon is Illuminated
Jun 13
Waxing Gibbous
Jun 17
Full
Jun 25
Last Quarter
Jul 2
New
Jul 9
First Quarter

Hourly Weather History & Observations

Time (CDT) Temp. Dew Point Humidity Pressure Visibility Wind Dir Wind Speed Gust Speed Precip Events Conditions
12:15 AM 50.4 °F 46.6 °F 87% 29.87 in 10.0 mi NNW 5.8 mph - N/A   Scattered Clouds
12:35 AM 50.0 °F 46.6 °F 88% 29.87 in 10.0 mi NNW 6.9 mph - N/A   Mostly Cloudy
12:55 AM 50.0 °F 46.2 °F 87% 29.87 in 10.0 mi NNW 4.6 mph - N/A   Mostly Cloudy
1:15 AM 49.6 °F 45.9 °F 87% 29.87 in 10.0 mi NNW 4.6 mph - N/A   Mostly Cloudy
1:35 AM 49.6 °F 45.5 °F 86% 29.86 in 10.0 mi NNW 5.8 mph - N/A   Overcast
1:55 AM 50.0 °F 45.0 °F 83% 29.86 in 10.0 mi NNW 5.8 mph - N/A   Overcast
2:35 AM 49.8 °F 43.9 °F 80% 29.84 in 10.0 mi NNW 8.1 mph - N/A   Overcast
2:55 AM 49.8 °F 43.0 °F 77% 29.84 in 10.0 mi NNW 8.1 mph - N/A   Overcast
3:15 AM 49.5 °F 42.8 °F 78% 29.84 in 10.0 mi North 8.1 mph - N/A   Overcast
3:35 AM 49.3 °F 42.8 °F 78% 29.84 in 10.0 mi NNW 9.2 mph - N/A   Overcast
3:55 AM 49.1 °F 42.4 °F 78% 29.84 in 10.0 mi NNW 5.8 mph - N/A   Overcast
4:15 AM 48.6 °F 42.4 °F 79% 29.84 in 10.0 mi NNW 6.9 mph - N/A   Overcast
4:35 AM 48.4 °F 42.3 °F 79% 29.84 in 10.0 mi North 8.1 mph - N/A   Overcast
4:55 AM 48.4 °F 42.3 °F 79% 29.85 in 10.0 mi NNW 9.2 mph - N/A   Overcast
5:15 AM 48.2 °F 42.1 °F 79% 29.86 in 10.0 mi NNW 9.2 mph - N/A   Overcast
5:35 AM 47.7 °F 41.9 °F 80% 29.86 in 10.0 mi North 9.2 mph - N/A   Mostly Cloudy
5:55 AM 47.5 °F 41.9 °F 81% 29.86 in 10.0 mi North 8.1 mph - N/A   Mostly Cloudy
6:15 AM 47.8 °F 41.9 °F 80% 29.86 in 10.0 mi NNW 9.2 mph 16.1 mph N/A   Mostly Cloudy
6:35 AM 48.2 °F 42.1 °F 79% 29.87 in 10.0 mi North 10.4 mph - N/A   Scattered Clouds
6:55 AM 48.6 °F 42.3 °F 79% 29.87 in 10.0 mi North 6.9 mph - N/A   Clear
8:35 AM 52.7 °F 43.7 °F 71% 29.88 in 10.0 mi North 12.7 mph 21.9 mph N/A   Clear
8:55 AM 54.7 °F 44.1 °F 67% 29.89 in 10.0 mi NNW 12.7 mph 20.7 mph N/A   Clear
9:15 AM 55.9 °F 43.9 °F 64% 29.89 in 10.0 mi North 12.7 mph 19.6 mph N/A   Clear
9:35 AM 57.7 °F 43.5 °F 59% 29.89 in 10.0 mi North 11.5 mph 24.2 mph N/A   Clear
9:55 AM 58.3 °F 43.0 °F 57% 29.89 in 10.0 mi NNW 16.1 mph 20.7 mph N/A   Clear
10:15 AM 59.0 °F 41.2 °F 52% 29.89 in 10.0 mi North 13.8 mph 21.9 mph N/A   Clear
10:35 AM 59.9 °F 39.4 °F 47% 29.89 in 10.0 mi NNW 12.7 mph 21.9 mph N/A   Clear
10:55 AM 61.0 °F 39.0 °F 44% 29.89 in 10.0 mi North 11.5 mph 23.0 mph N/A   Clear
11:15 AM 61.9 °F 38.3 °F 42% 29.89 in 10.0 mi North 9.2 mph 20.7 mph N/A   Clear
11:35 AM 63.0 °F 37.6 °F 39% 29.89 in 10.0 mi North 18.4 mph 26.5 mph N/A   Clear
11:55 AM 63.7 °F 39.4 °F 41% 29.89 in 10.0 mi NNE 13.8 mph 24.2 mph N/A   Clear
12:15 PM 64.0 °F 38.7 °F 39% 29.89 in 10.0 mi North 15.0 mph 23.0 mph N/A   Clear
12:35 PM 64.8 °F 37.8 °F 37% 29.89 in 10.0 mi North 12.7 mph 21.9 mph N/A   Clear
12:55 PM 65.1 °F 38.5 °F 37% 29.89 in 10.0 mi North 12.7 mph 20.7 mph N/A   Scattered Clouds
1:15 PM 65.5 °F 40.1 °F 39% 29.89 in 10.0 mi North 6.9 mph 20.7 mph N/A   Scattered Clouds
1:35 PM 66.2 °F 37.9 °F 35% 29.89 in 10.0 mi NNW 13.8 mph 23.0 mph N/A   Scattered Clouds
1:55 PM 67.3 °F 38.7 °F 35% 29.89 in 10.0 mi North 13.8 mph 23.0 mph N/A   Scattered Clouds
2:15 PM 67.3 °F 39.7 °F 36% 29.88 in 10.0 mi North 10.4 mph 16.1 mph N/A   Scattered Clouds
2:35 PM 67.6 °F 39.4 °F 36% 29.88 in 10.0 mi North 8.1 mph - N/A   Mostly Cloudy
2:55 PM 68.2 °F 38.5 °F 34% 29.88 in 10.0 mi North 9.2 mph 17.3 mph N/A   Mostly Cloudy
3:15 PM 67.1 °F 39.2 °F 36% 29.88 in 10.0 mi NNW 9.2 mph 17.3 mph N/A   Mostly Cloudy
3:35 PM 67.8 °F 39.7 °F 36% 29.88 in 10.0 mi NNW 5.8 mph - N/A   Overcast
3:55 PM 67.8 °F 40.3 °F 37% 29.88 in 10.0 mi NNW 10.4 mph 17.3 mph N/A   Overcast
4:15 PM 68.0 °F 40.1 °F 36% 29.88 in 10.0 mi NW 10.4 mph 17.3 mph N/A   Overcast
4:35 PM 69.4 °F 40.6 °F 35% 29.88 in 10.0 mi NW 9.2 mph 16.1 mph N/A   Overcast
4:55 PM 68.4 °F 40.3 °F 36% 29.89 in 10.0 mi NNW 6.9 mph 17.3 mph N/A   Overcast
5:15 PM 69.8 °F 40.3 °F 34% 29.89 in 10.0 mi NNW 12.7 mph 17.3 mph N/A   Mostly Cloudy
5:35 PM 68.2 °F 39.6 °F 35% 29.89 in 10.0 mi NW 10.4 mph 17.3 mph N/A   Mostly Cloudy
5:55 PM 67.3 °F 40.3 °F 37% 29.89 in 10.0 mi NW 6.9 mph - N/A   Overcast
6:15 PM 68.7 °F 39.2 °F 34% 29.89 in 10.0 mi NNW 12.7 mph 19.6 mph N/A   Mostly Cloudy
6:35 PM 68.2 °F 39.7 °F 35% 29.89 in 10.0 mi NNW 6.9 mph - N/A   Mostly Cloudy
6:55 PM 68.4 °F 39.9 °F 35% 29.89 in 10.0 mi NNW 8.1 mph - N/A   Mostly Cloudy
7:15 PM 66.7 °F 39.7 °F 37% 29.90 in 10.0 mi NW 8.1 mph - N/A   Scattered Clouds
7:35 PM 66.4 °F 39.9 °F 38% 29.90 in 10.0 mi NNW 6.9 mph - N/A   Mostly Cloudy
7:55 PM 65.7 °F 40.3 °F 39% 29.90 in 10.0 mi NNW 5.8 mph - N/A   Scattered Clouds
8:15 PM 62.8 °F 42.6 °F 48% 29.90 in 10.0 mi WNW 3.5 mph - N/A   Clear
8:35 PM 59.7 °F 43.3 °F 55% 29.90 in 10.0 mi Calm Calm - N/A   Clear
8:55 PM 56.7 °F 46.2 °F 68% 29.91 in 10.0 mi Calm Calm - N/A   Clear
9:15 PM 54.7 °F 45.9 °F 72% 29.91 in 10.0 mi Calm Calm - N/A   Clear
9:35 PM 52.0 °F 46.2 °F 81% 29.92 in 10.0 mi Calm Calm - N/A   Clear
9:55 PM 52.2 °F 46.6 °F 81% 29.92 in 10.0 mi Calm Calm - N/A   Clear
10:15 PM 51.1 °F 45.7 °F 82% 29.92 in 10.0 mi Calm Calm - N/A   Clear
10:35 PM 49.1 °F 46.0 °F 89% 29.92 in 10.0 mi Calm Calm - N/A   Clear
10:55 PM 48.9 °F 45.7 °F 89% 29.92 in 10.0 mi Calm Calm - N/A   Clear
11:15 PM 48.4 °F 45.0 °F 88% 29.92 in 10.0 mi Calm Calm - N/A   Clear
11:35 PM 47.5 °F 45.5 °F 93% 29.92 in 10.0 mi Calm Calm - N/A   Clear
11:55 PM 47.3 °F 45.0 °F 92% 29.92 in 10.0 mi Calm Calm - N/A   Clear